Flag for Iran Weather past 2 weeks in Mashhad, Iran

Now
27 °F

Ice fog.


Feels Like: 15 °F
Forecast: 16 / 47 °F
Wind: 14 mph from Southeast

Location: Mashhad Airport

Current Time: Jan 26, 2015 at 10:42:47 AM

Latest Report: Jan 26, 2015 at 10:30 AM


Visibility: 2 mi

Pressure: 30.39 "Hg

Humidity: 100%

Dew point: 27 °F

Location of MashhadLocation

Historic Weather in Mashhad — Graph

°F

Mashhad temperature yesterday

Maximum temperature yesterday: 37 °F (at 12:30 PM)
Minimum temperature yesterday: 27 °F (at 6:30 AM)
Average temperature yesterday: 31 °F

Past Weeks' High & Low Weather Summary

 TemperatureHumidityPressure
High64 °F (Jan 16, 2:30 PM)100% (Jan 11, 10:00 AM)30.45 "Hg (Jan 11, 10:00 AM)
Low25 °F (Jan 26, 6:59 AM)15% (Jan 16, 2:00 PM)29.98 "Hg (Jan 16, 1:00 PM)
Average37 °F74%30.21 "Hg
* Reported Jan 11 9:30 AM — Jan 26 9:30 AM, Mashhad, Weather by CustomWeather, © 2014

Note: Actual official high and low records may vary slightly from our data, if they occured in-between our weather recording intervals... More about our weather records

Advertising

Mashhad weather history for previous 24 hours

 ConditionsComfort  
Time TempWeatherWind HumidityBarometerVisibility
9:30 AM
Jan 26
27 °FLight snow. Ice fog.12 mph100%30.39 "Hg3 mi
9:00 AM27 °FLight snow. Ice fog.12 mph100%30.39 "Hg1 mi
8:30 AM27 °FLight snow. Ice fog.9 mph100%30.39 "Hg2 mi
8:00 AM25 °FLight snow. Mostly cloudy.12 mph100%30.36 "Hg1 mi
7:30 AM25 °FSnow flurries. Ice fog.14 mph100%30.36 "Hg1 mi
6:59 AM25 °FSnow flurries. Ice fog.12 mph100%30.36 "Hg1 mi
6:30 AM27 °FSnow flurries. Ice fog.12 mph100%30.33 "Hg2 mi
6:00 AM27 °FSnow flurries. Ice fog.12 mph100%30.33 "Hg2 mi
5:30 AM27 °FIce fog.12 mph100%30.33 "Hg1 mi
5:00 AM27 °FIce fog.7 mph100%30.30 "Hg1 mi
4:30 AM27 °FSnow flurries. Ice fog.9 mph100%30.30 "Hg1 mi
4:00 AM27 °FLight snow. Ice fog.7 mph100%30.30 "Hg0 mi
3:30 AM28 °FIce fog.9 mph100%30.30 "Hg0 mi
3:00 AM28 °FIce fog.12 mph100%30.30 "Hg0 mi
2:30 AM28 °FIce fog.5 mph100%30.30 "Hg1 mi
2:00 AM28 °FIce fog.7 mph100%30.30 "Hg0 mi
1:30 AM28 °FIce fog.7 mph100%30.30 "Hg0 mi
1:00 AM28 °FIce fog.7 mph100%30.33 "Hg1 mi
12:30 AM28 °FIce fog.5 mph100%30.33 "Hg1 mi
12:00 AM28 °FIce fog.7 mph100%30.33 "Hg1 mi
11:30 PM
Jan 25
28 °FIce fog.9 mph100%30.33 "Hg0 mi
11:00 PM28 °FIce fog.9 mph100%30.33 "Hg0 mi
10:30 PM28 °FIce fog.9 mph100%30.33 "Hg1 mi
10:00 PM28 °FIce fog.12 mph100%30.33 "Hg1 mi
9:30 PM28 °FIce fog.9 mph100%30.33 "Hg0 mi
8:50 PM28 °FIce fog.9 mph100%30.33 "Hg0 mi
8:30 PM28 °FIce fog.12 mph100%30.33 "Hg0 mi
8:00 PM28 °FIce fog.14 mph100%30.30 "Hg0 mi
7:30 PM32 °FPassing clouds.12 mph93%30.33 "Hg5 mi
7:00 PM32 °FPassing clouds.12 mph93%30.30 "Hg5 mi
6:30 PM32 °FPassing clouds.7 mph80%30.30 "HgN/A
6:00 PM34 °FPassing clouds.9 mph75%30.30 "HgN/A
5:30 PM34 °FPassing clouds.7 mph75%30.30 "HgN/A
5:00 PM34 °FScattered clouds.7 mph75%30.30 "HgN/A
4:30 PM34 °FScattered clouds.7 mph75%30.30 "HgN/A
4:00 PM36 °FScattered clouds.7 mph70%30.30 "HgN/A
3:30 PM36 °FPartly sunny.7 mph70%30.30 "HgN/A
3:00 PM36 °FPartly sunny.5 mph70%30.30 "HgN/A
2:30 PM36 °FPartly sunny.7 mph70%30.30 "HgN/A
2:00 PM36 °FPartly sunny.5 mph70%30.30 "HgN/A
1:30 PM36 °FPartly sunny.5 mph65%30.30 "HgN/A
1:00 PM37 °FPartly sunny.7 mph65%30.33 "HgN/A
12:30 PM37 °FPartly sunny.5 mph60%30.33 "HgN/A
11:55 AM36 °FPartly sunny.5 mph65%30.33 "HgN/A
11:30 AM32 °FPartly sunny.5 mph75%30.36 "HgN/A
11:00 AM32 °FPartly sunny.5 mph75%30.39 "HgN/A
10:30 AM32 °FPartly sunny.7 mph87%30.39 "HgN/A
10:00 AM32 °FPartly sunny.9 mph100%30.39 "HgN/A
Weather by CustomWeather, © 2014

See weather overviewHow to use our weather pages